Simultaneous Nadir Overpasses (SNOs) Predictions

Prediction of SNOs between AURA and NPP Satellite Orbit:

Table of predicted SNOs for the next 14.0 days since TLE Epoch: 3/9/2013
Index Date (AURA) Time (AURA) Lat,Lon (AURA) SZA (AURA ) Date (NPP) Time (NPP) Lat,Lon (NPP) SZA (NPP ) Distance(km) Time Diff (sec)
1 03/10/2013 20:48:12 -79.80, -52.88 83.91 03/10/2013 20:47:56 -79.80, -52.80 83.92 1.60 16
2 03/10/2013 21:37:34 79.94, 115.87 95.86 03/10/2013 21:38:36 79.93, 115.78 95.83 1.78 62
3 03/13/2013 12:15:17 79.66,-105.69 95.25 03/13/2013 12:14:13 79.67,-105.60 95.28 1.96 64
4 03/13/2013 13:04:39 -79.85, 63.38 85.06 03/13/2013 13:04:53 -79.84, 63.33 85.06 1.22 14
5 03/16/2013 04:31:41 79.76, 10.97 94.02 03/16/2013 04:31:07 79.77, 11.05 94.03 1.78 34
6 03/16/2013
